sat.trackr.live / text

‹ back to catalog

GPS BIII-6 (PRN 28)

NORAD 55268 · 2023-009A

PAYLOAD ACTIVE UNKNOWN

§ Identity

Operator
Country
US
Launch date
2023-01-18
Launch site
AFETR
Launch vehicle
Mass (kg)
RCS (m²)

Purposes: nav

External: N2YO · Heavens-Above · Gunter

§ Orbital elements

Epoch: 2026-09-18T16:59:59.999712Z

Period
717.97 min
Inclination
55.1281°
Eccentricity
0.0005669
Mean motion
2.00565480 rev/d
Perigee alt
20,167.0 km
Apogee alt
20,197.1 km
Semi-major
26,560.2 km
B*
0.0000e+0
RAAN
144.8410°
Arg perigee
331.1007°
Mean anomaly
44.4314°
Rev number
2,712

§ Raw data

GPS BIII-6  (PRN 28)1 55268U 23009A   26261.70833333 -.00000021  00000+0  00000+0 0  99992 55268  55.1281 144.8410 0005669 331.1007  44.4314  2.00565480 27125

JSON: /api/v1/satellites/55268 · /tle

For live sub-satellite position, see the globe view (requires WebGL).

§ Visibility from observer

Set your observer location to see the next 7 days of passes ≥ 10°. The values pass through the URL so the page stays shareable.

No JS? Fill the form by hand. The geolocation button needs JavaScript.